"Pseudo-MPEC" for JKt004

Created 2024 Dec 9 19:31:11 UT using Find_Orb

Click here for an explanation of pseudo-MPECs

 
 Astrometry: 
     JKt004 *3C2024 11 28.61134112 47 16.481-02 54 32.15   ~BT2H 23.0 rVNEOCPT09
     JKt004  3C2024 11 28.65626512 47 19.831-02 53 57.23   ~BT2H 22.9 rVNEOCPT09
     JKt004  3C2024 11 28.65719712 47 19.898-02 53 56.65   ~BT2H 22.6 rVNEOCPT09

Station data:
(T09) Mauna Kea-UH/Tholen NEO Follow-Up (Subaru)  (N19.825504 W155.476019)
   US/Hawaii.  Observer J. Kleyna. 8.2-m f/2.2 Subaru reflector.

Orbital elements:  JKt004
   Perihelion 2024 Sep 10.38440 +/- 79.9 TT =  9:13:31 (JD 2460563.88440)
Epoch 2024 Nov 29.0 TT = JDT 2460643.5   Earth MOID: 0.0454      AutoNEOCP
M 169.19446608 +/- 90               (J2000 ecliptic)
n   2.12514202 +/- 1.27             Peri.  188.59036 +/- 90
a   0.59916174 +/- 0.239            Node   138.45645 +/- 42
e   0.5895561 +/- 0.22              Incl.  152.23927 +/- 59
P   0.464/169.397d         H 20.84  G  0.15   U 12.9  SR
q 0.24592226 +/- 0.605    Q 0.95240122 +/- 19
From 3 observations 2024 Nov. 28 (66.0 min); mean residual 0".05
Residuals in arcseconds: 
241128 T09  .00   .00     241128 T09  .01-  .09+    241128 T09  .05-  .06-    

Ephemerides (geocentric):
Date (UTC) HH   RA             Dec           delta  r     elong  mag " sig PA
---- --------  ------------   ------------  ------ ------ -----  --- --------
2024 12 09 20  13 06 32.286   +00 14 27.88  .81343 .94923  62.9 22.7  51d  92
2024 12 09 21  13 06 38.110   +00 15 23.36  .81239 .94918  62.9 22.6  51d  92
2024 12 09 22  13 06 43.950   +00 16 18.97  .81136 .94913  62.9 22.6  51d  92
2024 12 09 23  13 06 49.806   +00 17 14.71  .81033 .94909  63.0 22.6  51d  92
2024 12 10 00  13 06 55.677   +00 18 10.59  .80930 .94904  63.0 22.6  51d  92
2024 12 10 01  13 07 01.565   +00 19 06.61  .80827 .94899  63.0 22.6  51d  92
2024 12 10 02  13 07 07.468   +00 20 02.76  .80723 .94894  63.0 22.6  51d  92
2024 12 10 03  13 07 13.387   +00 20 59.05  .80620 .94889  63.1 22.6  51d  92
2024 12 10 04  13 07 19.322   +00 21 55.48  .80517 .94885  63.1 22.6  51d  92
2024 12 10 05  13 07 25.273   +00 22 52.05  .80414 .94880  63.1 22.6  51d  92
2024 12 10 06  13 07 31.241   +00 23 48.76  .80310 .94875  63.1 22.6  51d  92
2024 12 10 07  13 07 37.225   +00 24 45.60  .80207 .94870  63.2 22.6  51d  92
2024 12 10 08  13 07 43.225   +00 25 42.59  .80103 .94865  63.2 22.6  51d  92
2024 12 10 09  13 07 49.241   +00 26 39.72  .80000 .94860  63.2 22.6  51d  92
2024 12 10 10  13 07 55.274   +00 27 36.98  .79896 .94855  63.2 22.6  51d  92
2024 12 10 11  13 08 01.324   +00 28 34.39  .79793 .94850  63.3 22.6  51d  92
2024 12 10 12  13 08 07.390   +00 29 31.94  .79689 .94844  63.3 22.6  51d  92
2024 12 10 13  13 08 13.473   +00 30 29.64  .79586 .94839  63.3 22.6  51d  92
2024 12 10 14  13 08 19.572   +00 31 27.48  .79482 .94834  63.4 22.6  51d  92
2024 12 10 15  13 08 25.689   +00 32 25.46  .79379 .94829  63.4 22.6  51d  92
2024 12 10 16  13 08 31.822   +00 33 23.58  .79275 .94824  63.4 22.6  51d  92
2024 12 10 17  13 08 37.972   +00 34 21.86  .79172 .94818  63.4 22.6  51d  92
2024 12 10 18  13 08 44.139   +00 35 20.27  .79068 .94813  63.5 22.6  51d  92
2024 12 10 19  13 08 50.324   +00 36 18.84  .78964 .94808  63.5 22.6  51d  92
2024 12 10 20  13 08 56.525   +00 37 17.55  .78861 .94802  63.5 22.6  51d  92
2024 12 10 21  13 09 02.744   +00 38 16.40  .78757 .94797  63.5 22.6  51d  92
2024 12 10 22  13 09 08.980   +00 39 15.41  .78653 .94791  63.6 22.6  51d  92
2024 12 10 23  13 09 15.234   +00 40 14.56  .78550 .94786  63.6 22.6  51d  92
2024 12 11 00  13 09 21.505   +00 41 13.87  .78446 .94780  63.6 22.6  51d  92
2024 12 11 01  13 09 27.794   +00 42 13.32  .78342 .94775  63.6 22.6  51d  92
2024 12 11 02  13 09 34.100   +00 43 12.92  .78238 .94769  63.7 22.6  51d  92
2024 12 11 03  13 09 40.424   +00 44 12.68  .78134 .94763  63.7 22.6  51d  92
2024 12 11 04  13 09 46.766   +00 45 12.58  .78030 .94758  63.7 22.6  51d  92
2024 12 11 05  13 09 53.126   +00 46 12.64  .77927 .94752  63.7 22.6  51d  92
2024 12 11 06  13 09 59.503   +00 47 12.85  .77823 .94746  63.8 22.6  51d  92
2024 12 11 07  13 10 05.899   +00 48 13.21  .77719 .94741  63.8 22.6  51d  92
2024 12 11 08  13 10 12.313   +00 49 13.73  .77615 .94735  63.8 22.6  51d  92
2024 12 11 09  13 10 18.745   +00 50 14.40  .77511 .94729  63.8 22.6  51d  92
2024 12 11 10  13 10 25.195   +00 51 15.23  .77407 .94723  63.9 22.6  51d  92
2024 12 11 11  13 10 31.664   +00 52 16.21  .77303 .94717  63.9 22.6  51d  92
2024 12 11 12  13 10 38.151   +00 53 17.35  .77199 .94711  63.9 22.6  51d  92
2024 12 11 13  13 10 44.656   +00 54 18.65  .77095 .94705  63.9 22.6  51d  92
2024 12 11 14  13 10 51.181   +00 55 20.11  .76991 .94699  64.0 22.6  51d  92
2024 12 11 15  13 10 57.723   +00 56 21.72  .76887 .94693  64.0 22.6  51d  92
2024 12 11 16  13 11 04.285   +00 57 23.49  .76783 .94687  64.0 22.6  51d  92
2024 12 11 17  13 11 10.865   +00 58 25.42  .76679 .94681  64.0 22.6  51d  92
2024 12 11 18  13 11 17.465   +00 59 27.52  .76574 .94675  64.1 22.6  51d  92
2024 12 11 19  13 11 24.083   +01 00 29.77  .76470 .94669  64.1 22.6  51d  92